Location: Unspecified
(0.0000°N, 0.0000°E)
Time: 23:01:31
(UTC+00:00)

Envisat - Pass Details

Date: 16 January 2019
Orbit: 764 x 766 km, 98.2° (Epoch: 19 January)

Event Time Altitude Azimuth Distance (km) Brightness Sun altitude
Rises 20:17:07 0° 202° (SSW) 3,230 6.9 -29.5°
Reaches altitude 10° 20:20:34 10° 227° (SW) 2,301 6.3 -30.3°
Maximum altitude 20:23:06 14° 257° (WSW) 2,036 6.0 -30.9°
Drops below altitude 10° 20:25:38 10° 288° (WNW) 2,295 6.0 -31.5°
Sets 20:29:05 0° 313° (NW) 3,217 6.5 -32.2°
